When you browse on this site, cookies collect data to enhance your experience and personalize the content and advertising you see.
Visit our Privacy Policy to learn more. By continuing to use the site, you agree to this use of cookies and data.
  • En España
  • Lista de países
  • Para 7 días
  • Temperatura del agua
  • El tiempo en el mapa
  • Informadores
  • user-avatar
    Iniciar sesión

    Tiempo cada hora Kyzylorda

    Hoy, 17 Noviembre, Domingo

    Tiempo Temperatura Precipitaciones Viento Presión Humedad
    00:00 -5°C° 0 mm 6 mps 763 mmHg 28%
    01:00 -5°C° 0 mm 6 mps 763 mmHg 28%
    02:00 -6°C° 0 mm 6 mps 763 mmHg 29%
    03:00 -6°C° 0 mm 5 mps 763 mmHg 31%
    04:00 -7°C° 0 mm 5 mps 763 mmHg 33%
    05:00 -7°C° 0 mm 5 mps 763 mmHg 36%
    06:00 -7°C° 0 mm 5 mps 763 mmHg 38%
    07:00 -7°C° 0 mm 5 mps 763 mmHg 40%
    08:00 -5°C° 0 mm 5 mps 763 mmHg 35%
    09:00 -2°C° 0 mm 5 mps 764 mmHg 31%
    10:00 0°C° 0 mm 5 mps 764 mmHg 26%
    11:00 +1°C° 0 mm 4 mps 763 mmHg 24%
    12:00 +4°C° 0 mm 4 mps 763 mmHg 23%
    13:00 +5°C° 0 mm 4 mps 762 mmHg 21%
    14:00 +4°C° 0 mm 3 mps 762 mmHg 23%
    15:00 +3°C° 0 mm 3 mps 762 mmHg 25%
    16:00 +2°C° 0 mm 3 mps 762 mmHg 27%
    17:00 +1°C° 0 mm 3 mps 762 mmHg 29%
    18:00 0°C° 0 mm 3 mps 762 mmHg 31%
    19:00 -1°C° 0 mm 3 mps 762 mmHg 33%
    20:00 -2°C° 0 mm 3 mps 762 mmHg 35%
    21:00 -3°C° 0 mm 2 mps 762 mmHg 37%
    22:00 -3°C° 0 mm 2 mps 762 mmHg 38%
    23:00 -4°C° 0 mm 2 mps 762 mmHg 40%

    Mañana, 18 Noviembre, Lunes

    Tiempo Temperatura Precipitaciones Viento Presión Humedad
    00:00 -4°C° 0 mm 2 mps 761 mmHg 41%
    01:00 -3°C° 0 mm 1 mps 761 mmHg 42%
    02:00 -5°C° 0 mm 2 mps 761 mmHg 41%
    03:00 -5°C° 0 mm 2 mps 761 mmHg 40%
    04:00 -5°C° 0 mm 2 mps 761 mmHg 39%
    05:00 -5°C° 0 mm 2 mps 761 mmHg 39%
    06:00 -3°C° 0 mm 1 mps 761 mmHg 39%
    07:00 -4°C° 0 mm 1 mps 761 mmHg 39%
    08:00 -1°C° 0 mm 1 mps 762 mmHg 32%
    09:00 +2°C° 0 mm 1 mps 762 mmHg 26%
    10:00 +5°C° 0 mm 1 mps 762 mmHg 19%
    11:00 +5°C° 0 mm 2 mps 762 mmHg 17%
    12:00 +6°C° 0 mm 2 mps 761 mmHg 15%
    13:00 +8°C° 0 mm 2 mps 761 mmHg 13%
    14:00 +6°C° 0 mm 2 mps 761 mmHg 14%
    15:00 +5°C° 0 mm 2 mps 760 mmHg 16%
    16:00 +3°C° 0 mm 2 mps 760 mmHg 18%
    17:00 +2°C° 0 mm 2 mps 760 mmHg 20%
    18:00 +2°C° 0 mm 2 mps 760 mmHg 22%
    19:00 +1°C° 0 mm 2 mps 759 mmHg 24%
    20:00 -1°C° 0 mm 2 mps 759 mmHg 29%
    21:00 -1°C° 0 mm 2 mps 759 mmHg 33%
    22:00 -2°C° 0 mm 2 mps 759 mmHg 38%
    23:00 -2°C° 0 mm 2 mps 758 mmHg 42%

    Pasado mañana, 19 Noviembre, Martes

    Tiempo Temperatura Precipitaciones Viento Presión Humedad
    00:00 -2°C° 0 mm 3 mps 758 mmHg 46%
    01:00 -1°C° 0 mm 3 mps 758 mmHg 50%
    02:00 -2°C° 0 mm 3 mps 757 mmHg 59%
    03:00 -2°C° 0 mm 3 mps 757 mmHg 68%
    04:00 -2°C° 0 mm 3 mps 756 mmHg 78%
    05:00 -2°C° 0 mm 3 mps 756 mmHg 81%
    06:00 -2°C° 0 mm 3 mps 756 mmHg 83%
    07:00 -4°C° 0 mm 3 mps 756 mmHg 86%
    08:00 -1°C° 0 mm 4 mps 756 mmHg 74%
    09:00 +1°C° 0 mm 4 mps 756 mmHg 62%
    10:00 +4°C° 0 mm 4 mps 756 mmHg 50%
    11:00 +5°C° 0 mm 5 mps 755 mmHg 45%
    12:00 +6°C° 0 mm 5 mps 755 mmHg 40%
    13:00 +8°C° 0 mm 5 mps 754 mmHg 35%
    14:00 +7°C° 0 mm 5 mps 754 mmHg 39%
    15:00 +5°C° 0 mm 4 mps 753 mmHg 43%
    16:00 +4°C° 0 mm 3 mps 753 mmHg 46%
    17:00 +4°C° 0 mm 3 mps 753 mmHg 49%
    18:00 +3°C° 0 mm 3 mps 753 mmHg 52%
    19:00 +3°C° 0 mm 2 mps 753 mmHg 54%
    20:00 +3°C° 0 mm 2 mps 753 mmHg 58%
    21:00 +3°C° 0 mm 1 mps 753 mmHg 62%
    22:00 +3°C° 0 mm 1 mps 753 mmHg 65%
    23:00 +2°C° 0 mm 1 mps 752 mmHg 68%

    20 Noviembre, Miércoles

    Tiempo Temperatura Precipitaciones Viento Presión Humedad
    00:00 +1°C° 0 mm 1 mps 752 mmHg 71%
    01:00 +1°C° 0 mm 1 mps 752 mmHg 74%
    02:00 +1°C° 0 mm 1 mps 752 mmHg 77%
    03:00 -1°C° 0 mm 2 mps 752 mmHg 80%
    04:00 -2°C° 0 mm 2 mps 752 mmHg 82%
    05:00 -2°C° 0 mm 2 mps 752 mmHg 84%
    06:00 -1°C° 0 mm 2 mps 752 mmHg 87%
    07:00 -1°C° 0 mm 2 mps 752 mmHg 89%
    08:00 -1°C° 0 mm 3 mps 753 mmHg 86%
    09:00 -2°C° 0 mm 4 mps 753 mmHg 84%
    10:00 -2°C° 0 mm 5 mps 753 mmHg 81%
    11:00 -3°C° 0.1 mm 6 mps 753 mmHg 81%
    12:00 -4°C° 0.1 mm 6 mps 753 mmHg 81%
    13:00 -6°C° 0.1 mm 7 mps 753 mmHg 81%
    14:00 -6°C° 0.1 mm 7 mps 753 mmHg 82%
    15:00 -7°C° 0.1 mm 7 mps 754 mmHg 83%
    16:00 -8°C° 0.1 mm 7 mps 754 mmHg 85%
    17:00 -9°C° 0 mm 7 mps 755 mmHg 80%
    18:00 -9°C° 0 mm 7 mps 755 mmHg 75%
    19:00 -11°C° 0 mm 7 mps 756 mmHg 70%
    20:00 -12°C° 0 mm 7 mps 757 mmHg 66%
    21:00 -13°C° 0 mm 7 mps 757 mmHg 61%
    22:00 -14°C° 0 mm 7 mps 757 mmHg 57%
    23:00 -14°C° 0 mm 7 mps 758 mmHg 57%

    21 Noviembre, Jueves

    Tiempo Temperatura Precipitaciones Viento Presión Humedad
    00:00 -15°C° 0 mm 7 mps 758 mmHg 58%
    01:00 -17°C° 0 mm 7 mps 758 mmHg 58%
    02:00 -17°C° 0 mm 7 mps 759 mmHg 59%
    03:00 -18°C° 0 mm 7 mps 759 mmHg 60%
    04:00 -18°C° 0 mm 7 mps 759 mmHg 61%
    05:00 -18°C° 0 mm 7 mps 760 mmHg 62%
    06:00 -18°C° 0 mm 8 mps 760 mmHg 63%
    07:00 -19°C° 0 mm 8 mps 761 mmHg 64%
    08:00 -17°C° 0 mm 8 mps 761 mmHg 59%
    09:00 -16°C° 0 mm 8 mps 761 mmHg 53%
    10:00 -15°C° 0 mm 9 mps 762 mmHg 48%
    11:00 -14°C° 0 mm 9 mps 762 mmHg 46%
    12:00 -12°C° 0 mm 9 mps 761 mmHg 45%
    13:00 -11°C° 0 mm 9 mps 761 mmHg 43%
    14:00 -12°C° 0 mm 8 mps 762 mmHg 47%
    15:00 -13°C° 0 mm 8 mps 762 mmHg 51%
    16:00 -13°C° 0 mm 7 mps 762 mmHg 56%
    17:00 -14°C° 0 mm 7 mps 762 mmHg 59%
    18:00 -15°C° 0 mm 7 mps 762 mmHg 62%
    19:00 -17°C° 0 mm 7 mps 762 mmHg 65%
    20:00 -16°C° 0 mm 6 mps 762 mmHg 64%
    21:00 -16°C° 0 mm 6 mps 762 mmHg 64%
    22:00 -16°C° 0 mm 6 mps 762 mmHg 64%
    23:00 -17°C° 0 mm 6 mps 762 mmHg 65%

    22 Noviembre, Viernes

    Tiempo Temperatura Precipitaciones Viento Presión Humedad
    00:00 -17°C° 0 mm 5 mps 762 mmHg 65%
    01:00 -17°C° 0 mm 5 mps 762 mmHg 66%
    02:00 -17°C° 0 mm 5 mps 762 mmHg 68%
    03:00 -17°C° 0 mm 5 mps 763 mmHg 69%
    04:00 -18°C° 0 mm 5 mps 763 mmHg 70%
    05:00 -18°C° 0 mm 5 mps 763 mmHg 71%
    06:00 -18°C° 0 mm 5 mps 763 mmHg 72%
    07:00 -18°C° 0 mm 5 mps 764 mmHg 72%
    08:00 -15°C° 0 mm 5 mps 764 mmHg 62%
    09:00 -13°C° 0 mm 5 mps 764 mmHg 53%
    10:00 -11°C° 0 mm 5 mps 765 mmHg 43%
    11:00 -10°C° 0 mm 5 mps 765 mmHg 39%
    12:00 -8°C° 0 mm 5 mps 765 mmHg 35%
    13:00 -7°C° 0 mm 5 mps 765 mmHg 31%
    14:00 -8°C° 0 mm 5 mps 765 mmHg 35%
    15:00 -10°C° 0 mm 4 mps 765 mmHg 39%
    16:00 -11°C° 0 mm 4 mps 766 mmHg 43%
    17:00 -12°C° 0 mm 4 mps 766 mmHg 47%
    18:00 -12°C° 0 mm 4 mps 766 mmHg 50%
    19:00 -13°C° 0 mm 3 mps 767 mmHg 54%
    20:00 -13°C° 0 mm 3 mps 767 mmHg 56%
    21:00 -14°C° 0 mm 3 mps 767 mmHg 59%
    22:00 -14°C° 0 mm 3 mps 767 mmHg 61%
    23:00 -14°C° 0 mm 3 mps 767 mmHg 63%
    Mostrar más